Location: M�t�o Espelette
(43.3451°N, 1.4613°W)
Time: 04:39:09
(UTC+02:00)

ISS - Visible Passes

Search period start: 28 July 2017 00:00
Search period end: 07 August 2017 00:00
Orbit: 400 x 408 km, 51.6° (Epoch: 28 July)

Date Brightness Start Highest point End Pass type
(mag) Time Alt. Az. Time Alt. Az. Time Alt. Az.
28 Jul -1.0 00:42:34 10° NW 00:44:57 18° N 00:46:57 12° NE visible
28 Jul -0.7 02:19:10 10° NW 02:19:34 13° NW 02:19:34 13° NW visible
28 Jul -2.5 22:12:13 10° W 22:15:20 43° NNW 22:18:28 10° NE visible
28 Jul -1.1 23:49:57 10° NW 23:52:24 19° N 23:54:51 10° NE visible
29 Jul -1.2 01:26:56 10° NW 01:28:46 21° NNW 01:28:46 21° NNW visible
29 Jul -1.3 22:57:15 10° WNW 22:59:52 22° NNW 23:02:29 10° NE visible
30 Jul -1.4 00:34:37 10° NW 00:37:08 20° N 00:38:00 18° NNE visible
30 Jul -1.6 22:04:30 10° WNW 22:07:21 27° NNW 22:10:12 10° NE visible
30 Jul -1.2 23:42:11 10° NW 23:44:35 19° N 23:46:59 10° NE visible
31 Jul -1.1 01:18:41 10° NW 01:19:54 19° NNW 01:19:54 19° NNW visible
31 Jul -1.2 22:49:35 10° NW 22:52:00 19° N 22:54:24 10° NE visible
01 Aug -1.8 00:26:26 10° NW 00:29:12 26° NNE 00:29:12 26° NNE visible
01 Aug -1.5 23:34:05 10° NW 23:36:41 21° N 23:38:31 14° NE visible
02 Aug -1.0 01:10:22 10° NW 01:11:08 16° NW 01:11:08 16° NW visible
02 Aug -1.3 22:41:39 10° NW 22:44:05 19° N 22:46:31 10° NE visible
03 Aug -2.2 00:18:04 10° NW 00:20:28 34° N 00:20:28 34° N visible
03 Aug -2.1 23:25:47 10° NW 23:28:40 28° NNE 23:29:49 22° NE visible
04 Aug -0.8 01:02:06 10° WNW 01:02:26 12° WNW 01:02:26 12° WNW visible
04 Aug -1.7 22:33:26 10° NW 22:36:05 22° NNE 22:38:45 10° ENE visible
05 Aug -2.4 00:09:41 10° NW 00:11:48 37° NW 00:11:48 37° NW visible
05 Aug -3.1 23:17:21 10° NW 23:20:30 46° NNE 23:21:11 39° ENE visible
06 Aug -2.4 22:25:01 10° NW 22:27:59 31° NNE 22:30:35 12° E visible
